Weather History for KBIE - March, 2014

Change the Weather History Date:

Wednesday, March 19, 2014

  Actual Average Record
Temperature  
Mean Temperature 43 °F -  
Max Temperature 55 °F 56 °F 80 °F (1976)
Min Temperature 31 °F 32 °F 5 °F (1965)
Degree Days  
Heating Degree Days 22    
Moisture  
Dew Point 25 °F    
Average Humidity 58    
Maximum Humidity 91    
Minimum Humidity 27    
Precipitation  
Precipitation 0.00 in - - ()
Sea Level Pressure  
Sea Level Pressure 30.04 in    
Wind  
Wind Speed 17 mph (WNW)    
Max Wind Speed 25 mph    
Max Gust Speed 32 mph    
Visibility 10 miles    
Events Snow    
Averages and records for this station are not official NWS values.
T = Trace of Precipitation, MM = Missing Value Source: NWS Daily Summary

Daily Weather History Graph

Daily Weather History Graph

Search for Another Location

Airport or City:

Trip Planner

Search our weather history database for the weather conditions in past years. The results will help you decide how hot, cold, wet, or windy it might be!

Date:

Astronomy

Mar. 19, 2014 Rise Set
Actual Time 7:31 AM CDT 7:38 PM CDT
Civil Twilight 7:04 AM CDT 8:05 PM CDT
Nautical Twilight 6:33 AM CDT 8:37 PM CDT
Astronomical Twilight 6:00 AM CDT 9:09 PM CDT
Moon 10:58 PM CDT (3/19) 8:58 AM CDT (3/19)
Length of Visible Light 13h 00m
Length of Day
12h 06m
Waning Gibbous, 91% of the Moon is Illuminated
Mar 19
Waning Gibbous
Mar 23
Last Quarter
Mar 30
New
Apr 7
First Quarter
Apr 15
Full

Hourly Weather History & Observations

Time (CDT) Temp. Windchill Dew Point Humidity Pressure Visibility Wind Dir Wind Speed Gust Speed Precip Events Conditions
12:15 AM 33.1 °F 20.9 °F 28.6 °F 84% 29.84 in 10.0 mi NNW 21.9 mph 28.8 mph N/A Snow Light Snow
12:35 AM 33.1 °F 20.1 °F 28.9 °F 85% 29.85 in 7.0 mi North 25.3 mph 32.2 mph N/A Snow Light Snow
12:55 AM 33.3 °F 21.2 °F 28.6 °F 83% 29.85 in 10.0 mi NNW 21.9 mph 27.6 mph N/A   Overcast
1:15 AM 32.9 °F 21.3 °F 29.3 °F 87% 29.85 in 5.0 mi NNW 19.6 mph - N/A   Overcast
1:35 AM 32.9 °F 20.7 °F 30.2 °F 90% 29.86 in 4.0 mi NNW 21.9 mph 26.5 mph N/A Snow Light Snow
1:55 AM 33.4 °F 21.4 °F 31.1 °F 91% 29.87 in 4.0 mi NNW 21.9 mph 26.5 mph N/A Snow Light Snow
2:15 AM 33.6 °F 21.9 °F 30.7 °F 89% 29.88 in 5.0 mi NNW 20.7 mph 32.2 mph N/A   Overcast
2:35 AM 33.1 °F 20.1 °F 30.2 °F 89% 29.90 in 10.0 mi NNW 25.3 mph 29.9 mph N/A   Overcast
2:55 AM 32.9 °F 21.6 °F 30.0 °F 89% 29.91 in 10.0 mi NNW 18.4 mph 29.9 mph N/A   Overcast
3:15 AM 32.9 °F 20.4 °F 29.7 °F 88% 29.93 in 10.0 mi NNW 23.0 mph 29.9 mph N/A   Overcast
3:35 AM 32.9 °F 20.7 °F 29.1 °F 86% 29.93 in 10.0 mi NW 21.9 mph 26.5 mph N/A   Overcast
3:55 AM 32.9 °F 22.0 °F 29.1 °F 86% 29.94 in 10.0 mi NW 17.3 mph 21.9 mph N/A   Overcast
4:15 AM 32.9 °F 22.0 °F 28.8 °F 85% 29.95 in 10.0 mi NW 17.3 mph 21.9 mph N/A   Overcast
4:35 AM 32.9 °F 22.0 °F 28.4 °F 84% 29.96 in 10.0 mi NNW 17.3 mph 29.9 mph N/A   Overcast
4:55 AM 32.9 °F 21.6 °F 27.9 °F 82% 29.98 in 10.0 mi NW 18.4 mph 21.9 mph N/A   Overcast
5:15 AM 32.9 °F 22.8 °F 27.5 °F 81% 29.99 in 10.0 mi NNW 15.0 mph 24.2 mph N/A   Overcast
5:35 AM 32.9 °F 21.3 °F 27.0 °F 79% 30.00 in 10.0 mi NNW 19.6 mph 29.9 mph N/A   Overcast
5:55 AM 33.1 °F 21.5 °F 27.3 °F 79% 30.00 in 10.0 mi NNW 19.6 mph 24.2 mph N/A   Overcast
6:15 AM 33.3 °F 23.2 °F 27.5 °F 79% 30.01 in 10.0 mi NNW 15.0 mph 25.3 mph N/A   Overcast
6:35 AM 33.3 °F 23.2 °F 27.1 °F 78% 30.02 in 10.0 mi NNW 15.0 mph 23.0 mph N/A   Overcast
6:55 AM 33.1 °F 22.6 °F 27.3 °F 79% 30.03 in 10.0 mi NNW 16.1 mph - N/A   Overcast
7:15 AM 33.1 °F 23.9 °F 26.6 °F 77% 30.04 in 10.0 mi NNW 12.7 mph - N/A   Overcast
7:35 AM 32.2 °F 23.8 °F 26.6 °F 80% 30.05 in 10.0 mi NW 10.4 mph - N/A   Overcast
7:55 AM 31.1 °F 22.4 °F 26.1 °F 82% 30.06 in 10.0 mi NW 10.4 mph - N/A   Scattered Clouds
8:15 AM 31.8 °F 22.8 °F 25.9 °F 79% 30.07 in 10.0 mi NW 11.5 mph - N/A   Clear
8:35 AM 32.4 °F 23.5 °F 26.2 °F 78% 30.08 in 10.0 mi NW 11.5 mph - N/A   Clear
8:55 AM 33.8 °F 25.3 °F 26.6 °F 75% 30.07 in 10.0 mi NW 11.5 mph - N/A   Clear
9:15 AM 34.9 °F 25.7 °F 26.6 °F 72% 30.08 in 10.0 mi NW 13.8 mph - N/A   Clear
9:35 AM 36.3 °F 27.1 °F 26.8 °F 68% 30.09 in 10.0 mi NW 15.0 mph 18.4 mph N/A   Clear
9:55 AM 37.9 °F 29.6 °F 26.6 °F 64% 30.10 in 10.0 mi NNW 13.8 mph - N/A   Clear
10:15 AM 39.2 °F 30.5 °F 26.2 °F 60% 30.12 in 10.0 mi NNW 16.1 mph 20.7 mph N/A   Clear
10:35 AM 39.9 °F 31.1 °F 26.4 °F 59% 30.12 in 10.0 mi NNW 17.3 mph - N/A   Scattered Clouds
10:55 AM 41.2 °F 33.7 °F 26.4 °F 56% 30.12 in 10.0 mi NNW 13.8 mph 19.6 mph N/A   Scattered Clouds
11:15 AM 42.4 °F 35.0 °F 26.6 °F 54% 30.13 in 10.0 mi NNW 15.0 mph 18.4 mph N/A   Scattered Clouds
11:35 AM 43.0 °F 34.8 °F 25.9 °F 51% 30.13 in 10.0 mi NNW 18.4 mph 24.2 mph N/A   Clear
11:55 AM 44.1 °F 37.1 °F 25.9 °F 49% 30.13 in 10.0 mi NW 15.0 mph - N/A   Clear
12:15 PM 44.8 °F 38.0 °F 26.4 °F 49% 30.13 in 10.0 mi NW 15.0 mph 21.9 mph N/A   Clear
12:35 PM 46.0 °F 39.3 °F 26.2 °F 46% 30.13 in 10.0 mi WNW 16.1 mph 21.9 mph N/A   Scattered Clouds
12:55 PM 46.9 °F - 25.9 °F 44% 30.13 in 10.0 mi NW 12.7 mph 18.4 mph N/A   Scattered Clouds
1:15 PM 48.0 °F - 25.7 °F 42% 30.13 in 10.0 mi NW 12.7 mph 24.2 mph N/A   Scattered Clouds
1:35 PM 48.7 °F - 25.5 °F 40% 30.12 in 10.0 mi WNW 11.5 mph 23.0 mph N/A   Scattered Clouds
1:55 PM 49.5 °F - 24.4 °F 38% 30.12 in 10.0 mi WNW 16.1 mph 23.0 mph N/A   Clear
2:15 PM 50.2 °F - 24.6 °F 37% 30.11 in 10.0 mi West 18.4 mph - N/A   Scattered Clouds
2:35 PM 51.4 °F - 24.3 °F 35% 30.10 in 10.0 mi West 17.3 mph - N/A   Clear
2:55 PM 51.8 °F - 23.2 °F 33% 30.09 in 10.0 mi NW 16.1 mph 21.9 mph N/A   Clear
3:10 PM 52.0 °F - 23.4 °F 33% 30.09 in 10.0 mi NW 15.0 mph 23.0 mph N/A   Clear
3:35 PM 54.0 °F - 23.4 °F 30% 30.08 in 10.0 mi WNW 10.4 mph 19.6 mph N/A   Clear
3:55 PM 53.6 °F - 21.9 °F 29% 30.07 in 10.0 mi WNW 13.8 mph 23.0 mph N/A   Scattered Clouds
4:15 PM 54.5 °F - 22.3 °F 29% 30.06 in 10.0 mi West 12.7 mph - N/A   Clear
4:35 PM 54.0 °F - 21.4 °F 28% 30.06 in 10.0 mi West 11.5 mph - N/A   Scattered Clouds
4:55 PM 55.0 °F - 21.6 °F 27% 30.06 in 10.0 mi NW 10.4 mph 20.7 mph N/A   Scattered Clouds
5:15 PM 55.4 °F - 22.5 °F 28% 30.06 in 10.0 mi WNW 17.3 mph 20.7 mph N/A   Scattered Clouds
5:35 PM 53.8 °F - 22.5 °F 30% 30.06 in 10.0 mi WNW 17.3 mph 20.7 mph N/A   Mostly Cloudy
5:55 PM 54.7 °F - 23.2 °F 29% 30.06 in 10.0 mi WNW 13.8 mph - N/A   Scattered Clouds
6:15 PM 54.0 °F - 22.8 °F 30% 30.06 in 10.0 mi West 8.1 mph - N/A   Clear
6:30 PM 54.0 °F - 22.6 °F 30% 30.06 in 10.0 mi West 13.8 mph 17.3 mph N/A   Scattered Clouds
6:55 PM 53.1 °F - 23.0 °F 31% 30.06 in 10.0 mi WNW 12.7 mph - N/A   Clear
7:15 PM 51.8 °F - 23.0 °F 33% 30.06 in 10.0 mi West 10.4 mph - N/A   Clear
7:35 PM 49.3 °F - 23.0 °F 36% 30.07 in 10.0 mi West 6.9 mph - N/A   Clear
7:55 PM 45.7 °F 42.0 °F 22.5 °F 40% 30.06 in 10.0 mi West 6.9 mph - N/A   Clear
8:15 PM 44.2 °F 40.3 °F 21.9 °F 41% 30.06 in 10.0 mi WSW 6.9 mph - N/A   Clear
8:35 PM 41.9 °F 37.5 °F 21.6 °F 44% 30.06 in 10.0 mi WSW 6.9 mph - N/A   Clear
8:55 PM 41.4 °F 37.6 °F 21.0 °F 44% 30.06 in 10.0 mi SW 5.8 mph - N/A   Clear
9:15 PM 41.5 °F 37.8 °F 21.7 °F 45% 30.06 in 10.0 mi SW 5.8 mph - N/A   Clear
9:35 PM 39.6 °F 34.7 °F 21.6 °F 49% 30.06 in 10.0 mi SW 6.9 mph - N/A   Scattered Clouds
9:55 PM 39.6 °F 35.4 °F 21.9 °F 49% 30.06 in 10.0 mi SSW 5.8 mph - N/A   Clear
10:15 PM 37.2 °F 33.6 °F 21.4 °F 53% 30.06 in 10.0 mi SW 4.6 mph - N/A   Clear
10:35 PM 37.0 °F 31.6 °F 21.6 °F 54% 30.06 in 10.0 mi SW 6.9 mph - N/A   Clear
10:55 PM 37.4 °F 32.1 °F 21.6 °F 53% 30.06 in 10.0 mi SW 6.9 mph - N/A   Clear
11:15 PM 35.2 °F 30.3 °F 21.2 °F 57% 30.06 in 10.0 mi SW 5.8 mph - N/A   Clear
11:35 PM 36.0 °F 33.3 °F 21.7 °F 56% 30.06 in 10.0 mi SW 3.5 mph - N/A   Clear
11:55 PM 37.0 °F - 22.1 °F 55% 30.06 in 10.0 mi Calm Calm - N/A   Clear